Location: Big Meadows
(38.5260°N, 78.4400°W)
Time: 11:54:36
(UTC-04:00)

H-2A R/B - Visible Passes

Search period start: 01 August 2014 00:00
Search period end: 11 August 2014 00:00
Orbit: 734 x 839 km, 98.5° (Epoch: 31 July)

Date Brightness Start Highest point End Pass type
(mag) Time Alt. Az. Time Alt. Az. Time Alt. Az.
01 Aug 3.3 00:28:31 34° WNW 00:28:31 34° WNW 00:32:24 10° NNW visible
01 Aug 4.0 22:17:10 14° ENE 22:18:14 14° ENE 22:20:56 10° NNE visible
01 Aug 2.5 23:57:49 62° NW 23:57:49 62° NW 00:02:19 10° NNW visible
02 Aug 2.4 23:27:08 57° NE 23:27:08 57° NE 23:31:51 10° N visible
03 Aug 4.4 01:07:48 15° WNW 01:07:48 15° WNW 01:09:38 10° NW visible
03 Aug 3.1 22:56:27 31° ENE 22:56:28 31° ENE 23:01:01 10° N visible
04 Aug 3.7 00:37:07 28° WNW 00:37:07 28° WNW 00:40:26 10° NW visible
04 Aug 3.9 22:25:46 17° ENE 22:26:22 17° ENE 22:29:36 10° NNE visible
05 Aug 2.8 00:06:26 49° NW 00:06:26 49° NW 00:10:29 10° NNW visible
05 Aug 2.4 23:35:45 59° NNE 23:35:45 59° NNE 23:40:07 10° N visible
06 Aug 4.6 01:16:25 12° WNW 01:16:25 12° WNW 01:17:08 10° WNW visible
06 Aug 3.0 23:05:04 36° ENE 23:05:04 36° ENE 23:09:23 10° N visible
07 Aug 4.0 00:45:44 22° WNW 00:45:44 22° WNW 00:48:25 10° NW visible
07 Aug 3.7 22:34:23 20° ENE 22:34:31 20° ENE 22:38:09 10° NNE visible
08 Aug 3.2 00:15:03 39° NW 00:15:03 39° NW 00:18:36 10° NNW visible
08 Aug 4.3 22:04:06 10° ENE 22:04:31 10° ENE 22:04:55 10° NE visible
08 Aug 2.6 23:44:22 54° N 23:44:22 54° N 23:48:20 10° NNW visible
09 Aug 2.9 23:13:41 40° NE 23:13:41 40° NE 23:17:42 10° N visible
10 Aug 4.3 00:54:21 17° WNW 00:54:21 17° WNW 00:56:18 10° NW visible
10 Aug 3.5 22:43:01 23° ENE 22:43:01 23° ENE 22:46:38 10° NNE visible
